Regional Weather Roundup
Issued by NWS

Home | Current Version | Previous Version | Graphics & Text | Print | Product List | Glossary On
Versions: 1 2 3 4 5 6 7 8 9 10 11 12 13 14 15 16 17 18 19 20 21 22 23 24 25 26 27 28 29 30 31 32 33 34 35 36 37 38 39 40 41 42 43 44 45 46 47 48 49 50
000
ASUS45 KSLC 060310
RWRUT

UTAH REGIONAL WEATHER ROUNDUP
NATIONAL WEATHER SERVICE SALT LAKE CITY UT
800 PM MST FRI FEB 05 2016

UTZ001>011-023>025-060400-

NORTHERN UTAH

CITY           SKY/WX    TMP DP  RH WIND       PRES   REMARKS
BRIGHAM CITY   CLOUDY    31  27  85 CALM      30.54F
HILL AFB       CLOUDY    32  22  66 E2        30.52S
LOGAN          CLOUDY    30  27  88 CALM      30.52F FOG
OGDEN          CLOUDY    32  28  85 CALM      30.52S
PROVO AIRPORT  PTCLDY    19  18  93 CALM      30.54S
SALT LAKE CITY PTCLDY    30  22  72 SE7       30.53F WCI  23
VERNAL         CLOUDY     9   5  84 NW3       30.50S
WENDOVER       PTCLDY    28  23  80 NE6       30.53S WCI  22
HEBER CITY     PTCLDY    18  12  79 SE5       30.49S WCI  11
WEST JORDAN    CLEAR     25  21  86 SW3       30.53S

$$

UTZ012>022-026-027-060400-

SOUTHERN/CENTRAL UTAH

CITY           SKY/WX    TMP DP  RH WIND       PRES   REMARKS
BLANDING       CLEAR     17  12  80 N7        30.54S WCI   8
BRYCE CANYON   PTCLDY     7   2  80 W9        30.47S WCI  -7
CEDAR CITY     PTCLDY    24  18  77 CALM      30.48F
DELTA            N/A     13  12  94 CALM      30.54F VSB<1/4
HANKSVILLE     CLOUDY    19  18  93 N7        30.61S WCI  10
MILFORD        PTCLDY     7   4  87 W7        30.52F WCI  -5
MOAB/CYNLANDS  CLOUDY    18  15  88 N3        30.56S
PRICE          PTCLDY    10   5  80 N6        30.49R WCI   0
ST GEORGE      PTCLDY    45  21  39 N7        30.51R
KANAB          CLEAR     34  23  64 N8        30.52R WCI  27

$$

REGIONAL REPORTS     COLORADO/ARIZONA

CITY           SKY/WX    TMP DP  RH WIND       PRES   REMARKS
CRAIG, CO      CLOUDY    -1  -5  82 CALM      30.47R
GRAND JUNCTION CLOUDY    11   8  88 E3        30.56R
RIFLE          CLOUDY    13   6  74 E5        30.53R WCI   5
MONTROSE       CLOUDY    13   7  77 SE10      30.53S WCI   0
CORTEZ         CLOUDY    17   9  70 E3        30.46R
PAGE, AZ       CLEAR     33  22  63 SE3       30.51R
GRAND CANYON   CLEAR     24  13  62 CALM      30.45S
KINGMAN        CLEAR     41 N/A N/A NE10      30.42R
FLAGSTAFF      PTCLDY    26  12  55 NE10      30.43R WCI  16

$$

REGIONAL REPORTS    NEVADA/IDAHO/WYOMING

CITY           SKY/WX    TMP DP  RH WIND       PRES   REMARKS
LAS VEGAS, NV  CLEAR     53  25  33 NE5       30.41R
ELY            CLEAR     10   7  87 S15       30.50R WCI  -7
ELKO           PTCLDY    20  15  81 E7        30.50R WCI  11
POCATELLO, ID  CLOUDY    21  19  92 N5        30.51F WCI  15
BURLEY         PTCLDY    25  22  88 NE8       30.47F WCI  16
EVANSTON, WY   CLOUDY    22  16  78 SW15      30.44S WCI   9
ROCK SPRINGS   CLOUDY    21  15  78 W22       30.37R WCI   5

$$



USA.gov is the U.S. government's official web portal to all federal, state and local government web resources and services.